Tracking 19651 objects as of 23-Apr-2019
HD Live streaming from Space Station
objects crossing your sky now

THORAD AGENA D DEB

Track THORAD AGENA D DEB now!
10-day predictions


NORAD ID: 42510
Int'l Code: 1970-025RQ
Perigee: 980.7 km
Apogee: 987.0 km
Inclination: 100.1 °
Period: 104.6 minutes
Semi major axis: 7354 km
RCS: Unknown
Launch date: April 8, 1970
Source: United States (US)
Launch site: AIR FORCE WESTERN TEST RANGE (AFWTR)

Note: This is SATELLITE DEBRIS
aabbcc
Your satellite tracking list
Your tracking list is empty




NASA's NSSDC Master Catalog

Two Line Element Set (TLE):
1 42510U 70025RQ  19100.32714675  .00000265  00000-0  32142-3 0  9990
2 42510 100.0603 292.3400 0004253  44.4895  78.9811 13.76385095270697
Source of the keplerian elements: AFSPC